IRIDIUM 33 DEB, 36490

Orbit data source: Space-Track

IRIDIUM 33 DEB, 36490 is space debris in LEO originally from a launch on Sun, 14 Sep 1997 UTC launched from the Tyuratam Missile And Space Complex (TTMTR). The debris from Iridium 33, an American commercial communications satellite, has been tracked extensively since its accidental collision with the defunct Russian satellite Cosmos 2251 in 2009. This event, occurring at high speed in low Earth orbit (LEO), generated thousands of pieces of space debris, significantly increasing the risk of further collisions. The Iridium 33 debris cloud has impacted space traffic management and orbital debris mitigation strategies, making it a subject of ongoing study in space situational awareness.

Loading next visibility...
Identifier
36490, 1997-051WG
Orbit
LEO
Country
Flag of USUS
Related business
Manufacturer
Unknown
Mission
Spacecraft
Bus & Motor
Unknown
Mass
Unknown
Launch date (UTC)
1997-09-14 (29 years ago)
Launch vehicle
Unknown
Launch site
Tyuratam Missile And Space Complex (TTMTR)
Object type
Payload
Rocket body
Debris
Shape & HBR
Unknown shape, 0.1 m
Radar Cross Section
Small (<0.1 m²)

Expand to show TLE details & history
Last TLE update: 2 days ago

TLE from 2 days ago
0 IRIDIUM 33 DEB
1 36490U 97051WG  26119.94351950  .00011141  00000-0  14742-2 0  9997
2 36490  86.3603 307.9320 0001260 341.7738  18.3438 14.79854934885266
Epoch: 2026-04-29T22:38Z
TLE epoch observation values (Epoch: 2026-04-29T22:38:40.084Z)
Latitude
-0.00001°
Longitude
110.36776°
Altitude
632.059 km
Speed
7.543 km/s
True Right ascension
20h 31m 43s
True Declination
0° 00' 00"
Sunlit
Object was in daylight at epoch
Visualization orbit readout
Latitude
Unknown
Longitude
Unknown
Altitude
Unknown
Speed
Unknown
Apparent Right ascension
Unknown
Apparent Declination
Unknown
Sunlit
N/A
Visualization observer readout
Local Sidereal Time
01:16:33
Azimuth
Unknown
Elevation
Unknown
Doppler factor
Unknown
Orbital elements
Apogee altitude
627.566 km
Perigee altitude
625.801 km
Semi-major axis
7,004.82 km
Eccentricity
0.00013
Inclination
86.3603°
RAAN
307.932°
Arg. of periapsis
341.7738°
True anomaly
18.34834°
Mean anomaly
18.3438°
Eccentric anomaly
18.34607°
Mean motion
3.7021 °/min
Orbital period
97.24 mins
BSTAR
0.0014742
Loading maneuver chart data...
Computing Atmospheric mass density...
Loading historical data...
Loading historical data...
Loading historical data...
Loading historical data...
Loading historical data...
Loading historical data...
Loading historical data...

Documentation

Showing up to 5 results
|